Location: Unspecified
(0.0000°N, 0.0000°E)
Time: 09:41:00
(UTC+00:00)

AO-7 - Pass Details

Date: 04 October 2021
Orbit: 1439 x 1459 km, 101.9° (Epoch: 23 October)

Event Time Altitude Azimuth Distance (km) Brightness Sun altitude
Rises 04:44:29 0° 354° (N) 4,518 ? -16.0°
Reaches altitude 10° 04:47:39 10° 344° (NNW) 3,541 ? -15.2°
Maximum altitude 04:54:34 31° 287° (WNW) 2,323 ? -13.5°
Drops below altitude 10° 05:01:32 10° 229° (SW) 3,552 ? -11.8°
Sets 05:04:45 0° 218° (SW) 4,533 ? -11.0°
